TimeCDT,TemperatureF,Dew PointF,Humidity,Sea Level PressureIn,VisibilityMPH,Wind Direction,Wind SpeedMPH,Gust SpeedMPH,PrecipitationIn,Events,Conditions,WindDirDegrees,DateUTC
12:53 AM,78.1,72.0,81,30.04,10.0,SSW,4.6,-,N/A,,Clear,200,2013-07-10 05:53:00
1:53 AM,78.1,73.0,84,30.03,10.0,South,5.8,-,N/A,,Clear,190,2013-07-10 06:53:00
2:53 AM,78.1,73.0,84,30.03,10.0,SSW,5.8,-,N/A,,Partly Cloudy,200,2013-07-10 07:53:00
3:53 AM,78.1,73.0,84,30.03,10.0,SSW,4.6,-,N/A,,Clear,210,2013-07-10 08:53:00
4:53 AM,75.9,73.0,91,30.02,10.0,South,4.6,-,N/A,,Partly Cloudy,190,2013-07-10 09:53:00
5:53 AM,75.9,73.0,91,30.02,10.0,South,4.6,-,N/A,,Scattered Clouds,180,2013-07-10 10:53:00
6:53 AM,78.1,73.0,84,30.02,10.0,South,3.5,-,N/A,,Scattered Clouds,180,2013-07-10 11:53:00
7:53 AM,82.9,73.0,72,30.03,10.0,Variable,5.8,-,N/A,,Scattered Clouds,0,2013-07-10 12:53:00
8:53 AM,86.0,71.6,62,30.03,10.0,WSW,8.1,-,N/A,,Scattered Clouds,250,2013-07-10 13:53:00
9:53 AM,87.1,71.1,59,30.03,10.0,WSW,6.9,-,N/A,,Mostly Cloudy,250,2013-07-10 14:53:00
10:53 AM,90.0,71.1,54,30.00,10.0,SW,6.9,-,N/A,,Mostly Cloudy,220,2013-07-10 15:53:00
11:53 AM,91.0,70.0,50,29.99,10.0,WSW,10.4,-,N/A,,Mostly Cloudy,250,2013-07-10 16:53:00
12:53 PM,93.9,72.0,49,29.99,10.0,WSW,3.5,-,N/A,,Overcast,250,2013-07-10 17:53:00
1:53 PM,93.9,73.0,51,29.96,10.0,West,8.1,-,N/A,,Overcast,270,2013-07-10 18:53:00
2:53 PM,93.0,73.0,52,29.90,10.0,Variable,5.8,-,N/A,,Mostly Cloudy,0,2013-07-10 19:53:00
3:53 PM,91.9,72.0,52,29.90,10.0,SW,6.9,-,N/A,,Mostly Cloudy,230,2013-07-10 20:53:00
4:53 PM,93.0,72.0,50,29.87,10.0,WSW,4.6,-,N/A,,Mostly Cloudy,250,2013-07-10 21:53:00
5:38 PM,91.4,73.4,55,29.90,10.0,SW,8.1,-,N/A,Thunderstorm,Thunderstorm,230,2013-07-10 22:38:00
5:53 PM,89.1,73.0,59,29.88,10.0,East,8.1,-,N/A,Thunderstorm,Thunderstorm,80,2013-07-10 22:53:00
6:17 PM,80.6,69.8,70,29.93,10.0,ENE,17.3,26.5,N/A,Thunderstorm,Thunderstorm,60,2013-07-10 23:17:00
6:35 PM,75.2,71.6,89,29.93,1.0,NE,24.2,31.1,0.00,Rain-Thunderstorm,Thunderstorms and Rain,50,2013-07-10 23:35:00
6:46 PM,73.4,71.6,94,29.94,2.0,East,13.8,26.5,0.15,Thunderstorm,Overcast,90,2013-07-10 23:46:00
6:53 PM,73.9,71.1,91,29.95,2.0,East,6.9,19.6,0.38,Rain-Thunderstorm,Heavy Thunderstorms and Rain,80,2013-07-10 23:53:00
7:01 PM,73.4,71.6,94,29.97,0.8,North,4.6,-,0.19,Rain-Thunderstorm,Heavy Thunderstorms and Rain,360,2013-07-11 00:01:00
7:16 PM,73.4,71.6,94,29.95,3.0,South,8.1,-,0.44,Rain-Thunderstorm,Heavy Thunderstorms and Rain,190,2013-07-11 00:16:00
7:53 PM,73.9,71.1,91,29.93,10.0,Calm,Calm,-,0.49,Rain-Thunderstorm,Light Thunderstorms and Rain,0,2013-07-11 00:53:00
8:09 PM,73.4,71.6,94,29.96,10.0,South,5.8,-,0.00,,Mostly Cloudy,170,2013-07-11 01:09:00
8:39 PM,73.4,71.6,94,29.95,10.0,East,3.5,-,0.00,Thunderstorm,Thunderstorm,80,2013-07-11 01:39:00
8:53 PM,73.0,71.1,93,29.95,10.0,SSW,3.5,-,0.00,Thunderstorm,Thunderstorm,210,2013-07-11 01:53:00
9:13 PM,73.4,71.6,94,29.98,10.0,Calm,Calm,-,N/A,,Mostly Cloudy,0,2013-07-11 02:13:00
9:53 PM,73.9,71.1,91,29.96,10.0,ESE,3.5,-,N/A,,Overcast,120,2013-07-11 02:53:00
10:53 PM,73.0,70.0,90,29.97,10.0,SSE,5.8,-,N/A,,Overcast,150,2013-07-11 03:53:00
11:53 PM,72.0,70.0,93,29.96,10.0,South,5.8,-,N/A,,Overcast,170,2013-07-11 04:53:00